Weather History for Manistique, MI

Change the Weather History Date:

Tuesday, April 30, 2013

  Actual Average Record
Temperature  
Mean Temperature 52 °F -  
Max Temperature 57 °F 53 °F 72 °F (1952)
Min Temperature 46 °F 33 °F 22 °F (1956)
Degree Days  
Heating Degree Days 14    
Growing Degree Days 2 (Base 50)    
Moisture  
Dew Point 47 °F    
Average Humidity 87    
Maximum Humidity 93    
Minimum Humidity 77    
Precipitation  
Precipitation 0.00 in - - ()
Sea Level Pressure  
Sea Level Pressure 29.80 in    
Wind  
Wind Speed 9 mph (SE)    
Max Wind Speed 15 mph    
Max Gust Speed 24 mph    
Visibility 6 miles    
Events Fog , Rain    
Averages and records for this station are not official NWS values.
T = Trace of Precipitation, MM = Missing Value Source: NWS Daily Summary

Daily Weather History Graph

Daily Weather History Graph

Search for Another Location

Airport:

Trip Planner

Search our weather history database for the weather conditions in past years. The results will help you decide how hot, cold, wet, or windy it might be!

Date:

Astronomy

Apr. 30, 2013 Rise Set
Actual Time 6:32 AM EDT 8:51 PM EDT
Civil Twilight 5:59 AM EDT 9:24 PM EDT
Nautical Twilight 5:18 AM EDT 10:06 PM EDT
Astronomical Twilight 4:32 AM EDT 10:52 PM EDT
Moon 1:18 AM EDT (4/30) 10:57 AM EDT (4/30)
Length of Visible Light 15h 24m
Length of Day
14h 18m
Waning Gibbous, 70% of the Moon is Illuminated
Apr 30
Waning Gibbous
May 2
Last Quarter
May 9
New
May 18
First Quarter
May 25
Full

Hourly Weather History & Observations

Time (EDT) Temp. Windchill Dew Point Humidity Pressure Visibility Wind Dir Wind Speed Gust Speed Precip Events Conditions
12:14 AM 46.4 °F 42.9 °F 44.6 °F 93% 29.83 in 0.2 mi ESE 6.9 mph - N/A Fog Fog
12:35 AM 46.4 °F 42.4 °F 44.6 °F 93% 29.84 in 0.5 mi East 8.1 mph - N/A Fog Fog
12:55 AM 46.4 °F 42.9 °F 44.6 °F 93% 29.84 in 0.2 mi ESE 6.9 mph - N/A Fog Fog
1:14 AM 48.2 °F - 46.4 °F 93% 29.84 in 0.5 mi ESE 6.9 mph - N/A Fog Fog
1:35 AM 48.2 °F - 46.4 °F 93% 29.83 in 1.0 mi ESE 10.4 mph - N/A   Overcast
1:54 AM 48.2 °F - 46.4 °F 93% 29.83 in 0.8 mi ESE 9.2 mph - N/A   Overcast
2:15 AM 48.2 °F - 46.4 °F 93% 29.82 in 0.5 mi ESE 9.2 mph - N/A Fog Fog
2:34 AM 48.2 °F - 46.4 °F 93% 29.82 in 0.2 mi ESE 10.4 mph 16.1 mph N/A Fog Fog
2:55 AM 48.2 °F - 46.4 °F 93% 29.81 in 0.5 mi ESE 10.4 mph - N/A Fog Fog
3:15 AM 48.2 °F - 46.4 °F 93% 29.81 in 0.5 mi ESE 10.4 mph - N/A Fog Fog
3:34 AM 48.2 °F - 46.4 °F 93% 29.81 in 0.2 mi ESE 10.4 mph - N/A Fog Fog
3:55 AM 48.2 °F - 46.4 °F 93% 29.81 in 0.8 mi ESE 10.4 mph - N/A   Overcast
4:14 AM 48.2 °F - 46.4 °F 93% 29.81 in 3.0 mi ESE 10.4 mph - N/A   Mostly Cloudy
4:34 AM 48.2 °F - 46.4 °F 93% 29.81 in 4.0 mi ESE 10.4 mph - N/A   Scattered Clouds
4:55 AM 48.2 °F - 46.4 °F 93% 29.80 in 4.0 mi ESE 11.5 mph - N/A   Mostly Cloudy
5:14 AM 48.2 °F - 46.4 °F 93% 29.78 in 4.0 mi ESE 15.0 mph 20.7 mph N/A   Mostly Cloudy
5:35 AM 48.2 °F - 46.4 °F 93% 29.78 in 5.0 mi ESE 11.5 mph - N/A   Clear
5:55 AM 48.2 °F - 46.4 °F 93% 29.78 in 7.0 mi ESE 11.5 mph - N/A   Clear
6:14 AM 46.4 °F 41.1 °F 44.6 °F 93% 29.78 in 7.0 mi ESE 11.5 mph 18.4 mph N/A   Clear
6:35 AM 46.4 °F 40.7 °F 44.6 °F 93% 29.79 in 5.0 mi ESE 12.7 mph 18.4 mph N/A   Clear
6:54 AM 46.4 °F 40.7 °F 44.6 °F 93% 29.79 in 5.0 mi ESE 12.7 mph - N/A   Scattered Clouds
7:15 AM 46.4 °F 40.7 °F 44.6 °F 93% 29.78 in 7.0 mi ESE 12.7 mph - N/A   Scattered Clouds
7:35 AM 48.2 °F - 44.6 °F 87% 29.78 in 7.0 mi ESE 12.7 mph - N/A   Clear
7:54 AM 48.2 °F - 46.4 °F 93% 29.80 in 7.0 mi SE 10.4 mph - N/A   Scattered Clouds
8:15 AM 46.4 °F 41.5 °F 44.6 °F 93% 29.81 in 5.0 mi SE 10.4 mph - N/A Rain Light Rain
8:34 AM 48.2 °F - 46.4 °F 93% 29.81 in 5.0 mi SE 8.1 mph 20.7 mph N/A Rain Light Rain
8:54 AM 48.2 °F - 44.6 °F 87% 29.81 in 4.0 mi ESE 8.1 mph - N/A Rain Rain
9:15 AM 48.2 °F - 44.6 °F 87% 29.79 in 3.0 mi East 9.2 mph - N/A Rain Rain
9:34 AM 48.2 °F - 44.6 °F 87% 29.78 in 2.0 mi SE 12.7 mph - N/A Rain Rain
9:55 AM 48.2 °F - 46.4 °F 93% 29.80 in 1.0 mi South 10.4 mph 19.6 mph N/A Rain Rain
10:15 AM 46.4 °F 43.5 °F 44.6 °F 93% 29.77 in 0.2 mi ESE 5.8 mph - N/A Rain Light Rain
10:34 AM 48.2 °F - 46.4 °F 93% 29.77 in 0.2 mi SE 8.1 mph - N/A Fog Fog
10:55 AM 50.0 °F - 46.4 °F 87% 29.75 in 1.0 mi SSE 11.5 mph 19.6 mph N/A   Overcast
11:14 AM 51.8 °F - 48.2 °F 88% 29.75 in 2.5 mi SSE 11.5 mph 24.2 mph N/A   Overcast
11:35 AM 51.8 °F - 48.2 °F 88% 29.75 in 2.5 mi SSE 12.7 mph 19.6 mph N/A   Overcast
11:55 AM 51.8 °F - 48.2 °F 88% 29.75 in 2.0 mi SE 13.8 mph 17.3 mph N/A   Overcast
12:14 PM 50.0 °F - 46.4 °F 87% 29.78 in 3.0 mi South 6.9 mph - N/A   Overcast
12:35 PM 48.2 °F - 46.4 °F 93% 29.79 in 2.5 mi South 9.2 mph - N/A   Overcast
12:54 PM 50.0 °F - 46.4 °F 87% 29.79 in 4.0 mi South 5.8 mph - N/A   Overcast
1:15 PM 51.8 °F - 48.2 °F 88% 29.79 in 5.0 mi South 10.4 mph - N/A   Overcast
1:34 PM 51.8 °F - 48.2 °F 88% 29.78 in 4.0 mi SSE 10.4 mph 18.4 mph N/A   Overcast
1:55 PM 53.6 °F - 50.0 °F 88% 29.76 in 7.0 mi SSE 11.5 mph - N/A   Mostly Cloudy
2:15 PM 55.4 °F - 51.8 °F 88% 29.75 in 10.0 mi SSE 13.8 mph 19.6 mph N/A   Scattered Clouds
2:34 PM 57.2 °F - 53.6 °F 88% 29.75 in 10.0 mi SSE 15.0 mph 20.7 mph N/A   Clear
2:55 PM 57.2 °F - 51.8 °F 82% 29.76 in 10.0 mi SSE 12.7 mph - N/A   Clear
3:14 PM 57.2 °F - 51.8 °F 82% 29.76 in 10.0 mi SSE 10.4 mph - N/A   Scattered Clouds
3:35 PM 55.4 °F - 50.0 °F 82% 29.76 in 10.0 mi South 10.4 mph - N/A   Clear
3:55 PM 57.2 °F - 51.8 °F 82% 29.76 in 10.0 mi South 8.1 mph - N/A   Clear
4:14 PM 57.2 °F - 51.8 °F 82% 29.76 in 10.0 mi South 11.5 mph - N/A   Scattered Clouds
4:35 PM 57.2 °F - 51.8 °F 82% 29.77 in 10.0 mi South 10.4 mph - N/A   Clear
4:54 PM 57.2 °F - 51.8 °F 82% 29.77 in 10.0 mi SSW 10.4 mph - N/A   Clear
5:15 PM 55.4 °F - 50.0 °F 82% 29.77 in 10.0 mi SSW 6.9 mph - N/A   Clear
5:35 PM 55.4 °F - 50.0 °F 82% 29.77 in 10.0 mi SSW 11.5 mph 16.1 mph N/A   Clear
5:54 PM 55.4 °F - 48.2 °F 77% 29.78 in 10.0 mi South 9.2 mph - N/A   Clear
6:15 PM 55.4 °F - 48.2 °F 77% 29.78 in 10.0 mi South 8.1 mph - N/A   Clear
6:34 PM 53.6 °F - 48.2 °F 82% 29.78 in 10.0 mi South 8.1 mph - N/A   Clear
6:55 PM 53.6 °F - 46.4 °F 77% 29.79 in 10.0 mi South 5.8 mph - N/A   Clear
7:14 PM 53.6 °F - 46.4 °F 77% 29.79 in 10.0 mi SSE 8.1 mph - N/A   Clear
7:34 PM 55.4 °F - 48.2 °F 77% 29.79 in 10.0 mi South 8.1 mph - N/A   Clear
8:14 PM 53.6 °F - 46.4 °F 77% 29.80 in 10.0 mi SE 8.1 mph - N/A   Clear
8:35 PM 53.6 °F - 46.4 °F 77% 29.80 in 10.0 mi South 8.1 mph - N/A   Clear
8:54 PM 53.6 °F - 46.4 °F 77% 29.81 in 10.0 mi SE 5.8 mph - N/A   Mostly Cloudy
9:15 PM 50.0 °F - 44.6 °F 82% 29.83 in 10.0 mi SE 5.8 mph - N/A   Scattered Clouds
9:35 PM 50.0 °F - 44.6 °F 82% 29.84 in 10.0 mi South 6.9 mph - N/A   Scattered Clouds
9:54 PM 51.8 °F - 46.4 °F 82% 29.84 in 10.0 mi SSW 6.9 mph - N/A   Mostly Cloudy
10:15 PM 51.8 °F - 46.4 °F 82% 29.85 in 10.0 mi SSW 5.8 mph - N/A   Scattered Clouds
10:34 PM 53.6 °F - 46.4 °F 77% 29.85 in 10.0 mi South 4.6 mph - N/A   Mostly Cloudy
10:55 PM 51.8 °F - 46.4 °F 82% 29.85 in 10.0 mi Calm Calm - N/A   Scattered Clouds
11:14 PM 51.8 °F - 46.4 °F 82% 29.84 in 10.0 mi Calm Calm - N/A   Clear
11:35 PM 51.8 °F - 46.4 °F 82% 29.84 in 10.0 mi SSE 3.5 mph - N/A   Clear
11:55 PM 51.8 °F - 46.4 °F 82% 29.83 in 10.0 mi South 3.5 mph - N/A   Clear